TimeHST,TemperatureF,Dew PointF,Humidity,Sea Level PressureIn,VisibilityMPH,Wind Direction,Wind SpeedMPH,Gust SpeedMPH,PrecipitationIn,Events,Conditions,WindDirDegrees,DateUTC
12:58 AM,67.3,65.1,93,30.09,10.0,NW,4.6,-,N/A,,Clear,310,2013-09-06 10:58:00
1:58 AM,67.6,65.3,92,30.08,10.0,NNW,4.6,-,N/A,,Clear,330,2013-09-06 11:58:00
2:58 AM,67.5,64.9,92,30.07,10.0,NW,2.3,-,N/A,,Clear,320,2013-09-06 12:58:00
3:58 AM,65.5,63.3,93,30.06,10.0,North,2.3,-,N/A,,Clear,350,2013-09-06 13:58:00
4:58 AM,65.1,63.1,93,30.06,10.0,North,1.2,-,N/A,,Clear,10,2013-09-06 14:58:00
5:58 AM,65.7,63.9,94,30.07,10.0,NNW,2.3,-,N/A,,Clear,340,2013-09-06 15:58:00
6:58 AM,66.7,64.2,92,30.08,10.0,NNW,2.3,-,N/A,,Clear,330,2013-09-06 16:58:00
7:58 AM,72.9,68.4,86,30.09,10.0,Variable,1.2,-,N/A,,Clear,0,2013-09-06 17:58:00
8:58 AM,76.8,66.6,70,30.11,10.0,Variable,2.3,-,N/A,,Clear,0,2013-09-06 18:58:00
9:58 AM,78.6,66.2,66,30.11,10.0,East,4.6,-,N/A,,Partly Cloudy,80,2013-09-06 19:58:00
10:58 AM,82.0,64.9,56,30.09,10.0,Variable,4.6,-,N/A,,Scattered Clouds,0,2013-09-06 20:58:00
11:55 AM,82.4,65.3,56,30.05,10.0,Variable,4.6,-,N/A,,Scattered Clouds,0,2013-09-06 21:55:00
12:55 PM,82.4,65.3,56,30.06,10.0,Variable,4.6,-,N/A,,Scattered Clouds,0,2013-09-06 22:55:00
1:58 PM,80.4,66.4,62,30.05,10.0,Variable,3.5,-,N/A,,Overcast,0,2013-09-06 23:58:00
2:58 PM,84.2,66.7,56,30.03,10.0,Variable,5.8,-,N/A,,Partly Cloudy,0,2013-09-07 00:58:00
3:58 PM,81.5,66.4,60,30.03,10.0,ESE,5.8,-,N/A,,Overcast,120,2013-09-07 01:58:00
4:58 PM,81.7,66.9,61,30.03,10.0,ENE,13.8,-,N/A,,Scattered Clouds,60,2013-09-07 02:58:00
5:58 PM,78.1,65.3,65,30.05,10.0,ESE,5.8,-,N/A,,Clear,110,2013-09-07 03:58:00
6:58 PM,75.9,64.9,69,30.06,10.0,ENE,2.3,-,N/A,,Clear,60,2013-09-07 04:58:00
7:58 PM,74.7,64.9,72,30.08,10.0,NE,1.2,-,N/A,,Clear,40,2013-09-07 05:58:00
8:58 PM,70.0,63.7,80,30.10,10.0,West,4.6,-,N/A,,Clear,270,2013-09-07 06:58:00
9:58 PM,68.7,63.9,84,30.11,10.0,WNW,5.8,-,N/A,,Clear,300,2013-09-07 07:58:00
10:58 PM,69.3,63.7,82,30.10,10.0,NNW,4.6,-,N/A,,Clear,330,2013-09-07 08:58:00
11:58 PM,70.2,64.4,82,30.09,10.0,NW,4.6,-,N/A,,Mostly Cloudy,310,2013-09-07 09:58:00